[TLELIST] Archives

 

[TLELIST] Current TLEs

September 6th 2024 PST

HST 1 20580U 90037B 24250.09855787 .00015407 00000-0 70235-3 0 9993 2 20580 28.4679 162.5161 0002346 209.6103 150.4358 15.19185470689607 ISS (ZARYA) 1 25544U 98067A 24250.33207498 -.00364014 00000-0 -70057-2 0 9990 2 25544 51.6575 273.4324 0008326 281.1397 170.1456 15.48559576471131 CXO 1 25867U 99040B 24252.48732581 .00001017 00000-0 00000-0 0 9992 2 25867 42.9344 146.9240 8802068 301.0274 0.7718 0.37811689 14877 ...Continue Reading

[TLELIST] Current TLEs

September 5th 2024 PST

HST 1 20580U 90037B 24248.19341527 .00014628 00000-0 66756-3 0 9990 2 20580 28.4685 175.3075 0002400 186.6100 173.4462 15.19129597689050 ISS (ZARYA) 1 25544U 98067A 24249.42917779 .00021908 00000-0 39821-3 0 9993 2 25544 51.6403 277.8281 0011188 323.3653 129.8175 15.49404010470990 CXO 1 25867U 99040B 24249.84279623 .00000946 00000-0 00000+0 0 9990 2 25867 42.9047 147.0650 8806691 300.9520 0.7153 0.37812648 26021 ...Continue Reading

[TLELIST] Current TLEs

September 4th 2024 PST

HST 1 20580U 90037B 24247.53645348 .00013506 00000-0 61603-3 0 9995 2 20580 28.4685 179.7183 0002426 178.0983 181.9620 15.19112357688954 ISS (ZARYA) 1 25544U 98067A 24248.40368201 .00022223 00000-0 40448-3 0 9998 2 25544 51.6400 282.9064 0011049 319.4439 169.9759 15.49357920470830 CXO 1 25867U 99040B 24249.84279623 .00000946 00000-0 00000+0 0 9990 2 25867 42.9047 147.0650 8806691 300.9520 0.7153 0.37812648 26021 ...Continue Reading

[TLELIST] Current TLEs

September 4th 2024 PST

HST 1 20580U 90037B 24247.53645348 .00013506 00000-0 61603-3 0 9995 2 20580 28.4685 179.7183 0002426 178.0983 181.9620 15.19112357688954 ISS (ZARYA) 1 25544U 98067A 24248.40368201 .00022223 00000-0 40448-3 0 9998 2 25544 51.6400 282.9064 0011049 319.4439 169.9759 15.49357920470830 CXO 1 25867U 99040B 24249.84279623 .00000946 00000-0 00000+0 0 9990 2 25867 42.9047 147.0650 8806691 300.9520 0.7153 0.37812648 26021 ...Continue Reading

[TLELIST] Current TLEs

September 3rd 2024 PST

HST 1 20580U 90037B 24247.14227267 .00013405 00000-0 61156-3 0 9999 2 20580 28.4684 182.3646 0002430 173.5166 186.5459 15.19102456689158 ISS (ZARYA) 1 25544U 98067A 24247.29770105 .00022172 00000-0 40434-3 0 9992 2 25544 51.6399 288.3830 0010784 314.4181 122.2100 15.49307337470662 CXO 1 25867U 99040B 24249.84279623 .00000946 00000-0 00000+0 0 9990 2 25867 42.9047 147.0650 8806691 300.9520 0.7153 0.37812648 26021 ...Continue Reading

[TLELIST] Current TLEs

September 2nd 2024 PST

HST 1 20580U 90037B 24245.95971568 .00013277 00000-0 60617-3 0 9994 2 20580 28.4680 190.3036 0002464 160.3206 199.7482 15.19073146688718 ISS (ZARYA) 1 25544U 98067A 24246.39742947 .00022683 00000-0 41391-3 0 9995 2 25544 51.6411 292.8343 0011141 310.7413 141.3655 15.49270748470528 CXO 1 25867U 99040B 24247.19817133 .00000902 00000-0 00000-0 0 9993 2 25867 42.8555 147.2449 8811856 300.8412 0.6880 0.37809906 14857 ...Continue Reading

[TLELIST] Current TLEs

September 1st 2024 PST

HST 1 20580U 90037B 24244.58003658 .00012771 00000-0 58337-3 0 9992 2 20580 28.4674 199.5666 0002497 146.0491 214.0262 15.19036139688509 ISS (ZARYA) 1 25544U 98067A 24245.36737579 .00022741 00000-0 41563-3 0 9992 2 25544 51.6410 297.9317 0011185 307.1458 156.2585 15.49223257470363 CXO 1 25867U 99040B 24247.19817133 .00000902 00000-0 00000-0 0 9993 2 25867 42.8555 147.2449 8811856 300.8412 0.6880 0.37809906 14857 ...Continue Reading

[TLELIST] Current TLEs

August 31st 2024 PST

HST 1 20580U 90037B 24243.59453106 .00011139 00000-0 50814-3 0 9998 2 20580 28.4670 206.1830 0002491 135.8834 224.1958 15.19010986688353 ISS (ZARYA) 1 25544U 98067A 24243.69891984 .00053939 00000-0 97276-3 0 9992 2 25544 51.6407 306.1908 0011145 301.8729 210.3060 15.49164437470102 CXO 1 25867U 99040B 24244.55236217 .00000872 00000-0 00000-0 0 9994 2 25867 42.7947 147.4522 8816024 300.7014 0.5263 0.37806177 14844 ...Continue Reading

[TLELIST] Current TLEs

August 30th 2024 PST

HST 1 20580U 90037B 24242.60901044 .00011922 00000-0 54476-3 0 9996 2 20580 28.4668 212.7994 0002488 125.5399 234.5426 15.18990157688207 ISS (ZARYA) 1 25544U 98067A 24243.43343466 .00023737 00000-0 43471-3 0 9992 2 25544 51.6412 307.5019 0011312 297.9666 172.6496 15.49136267470065 CXO 1 25867U 99040B 24244.55236217 .00000872 00000-0 00000-0 0 9994 2 25867 42.7947 147.4522 8816024 300.7014 0.5263 0.37806177 14844 ...Continue Reading

[TLELIST] Current TLEs

August 30th 2024 PST

HST 1 20580U 90037B 24242.60901044 .00011922 00000-0 54476-3 0 9996 2 20580 28.4668 212.7994 0002488 125.5399 234.5426 15.18990157688207 ISS (ZARYA) 1 25544U 98067A 24243.43343466 .00023737 00000-0 43471-3 0 9992 2 25544 51.6412 307.5019 0011312 297.9666 172.6496 15.49136267470065 CXO 1 25867U 99040B 24244.55236217 .00000872 00000-0 00000-0 0 9994 2 25867 42.7947 147.4522 8816024 300.7014 0.5263 0.37806177 14844 ...Continue Reading
  • This mailing list is a public mailing list - anyone may join or leave, at any time.
  • This mailing list is announce-only.

International Space Station (ISS) / Hubble Space Telescope (HST) / Chandra X-Ray Observatory Orbital Data via EMAIL

Privacy Policy:

Private list